| time (UTC) | temp F | wind direction | speed MPH | gust MPH | rain 1hr in | rain 24hr in | rain mn in | humidity % | barometer mb |
| 20260901225029 | 62 | 0 | 0.0 | 1.0 | 0.00 | 0.30 | 0.30 | 94 | 1018.4 |
| 20260901224550 | 62 | 0 | 0.0 | 1.0 | 0.00 | 0.30 | 0.30 | 93 | 1018.3 |
| 20260901224030 | 62 | 0 | 0.0 | 2.0 | 0.00 | 0.30 | 0.30 | 93 | 1018.5 |
| 20260901223529 | 62 | 0 | 0.0 | 2.0 | 0.00 | 0.30 | 0.30 | 93 | 1018.5 |
| 20260901223042 | 62 | 0 | 0.0 | 1.0 | 0.00 | 0.30 | 0.30 | 93 | 1018.5 |
| 20260901222531 | 63 | 0 | 0.0 | 2.0 | 0.00 | 0.30 | 0.30 | 93 | 1018.4 |
| 20260901222032 | 63 | 0 | 0.0 | 2.0 | 0.00 | 0.30 | 0.30 | 92 | 1018.5 |
| 20260901221545 | 63 | 0 | 0.0 | 2.0 | 0.00 | 0.30 | 0.30 | 92 | 1018.4 |
| 20260901221030 | 63 | 0 | 0.0 | 2.0 | 0.00 | 0.30 | 0.30 | 93 | 1018.3 |
| 20260901220530 | 63 | 0 | 0.0 | 2.0 | 0.00 | 0.30 | 0.30 | 92 | 1018.3 |
| 20260901220050 | 63 | 0 | 0.0 | 2.0 | 0.00 | 0.30 | 0.30 | 92 | 1018.3 |
| 20260901215527 | 63 | 209 | 0.0 | 2.0 | 0.00 | 0.30 | 0.30 | 92 | 1018.3 |
| 20260901215029 | 63 | 186 | 0.0 | 2.0 | 0.00 | 0.30 | 0.30 | 92 | 1018.1 |
| 20260901214551 | 63 | 0 | 0.0 | 2.0 | 0.00 | 0.30 | 0.30 | 92 | 1018.1 |
| 20260901214031 | 63 | 148 | 0.0 | 2.0 | 0.00 | 0.30 | 0.30 | 92 | 1018.1 |
| 20260901213530 | 63 | 182 | 0.0 | 3.0 | 0.00 | 0.30 | 0.30 | 92 | 1017.9 |
| 20260901213046 | 63 | 0 | 1.0 | 4.0 | 0.00 | 0.30 | 0.30 | 92 | 1018.1 |
| 20260901212530 | 63 | 168 | 1.0 | 4.0 | 0.00 | 0.30 | 0.30 | 91 | 1018.0 |
| 20260901212032 | 63 | 153 | 0.0 | 6.0 | 0.00 | 0.30 | 0.30 | 91 | 1018.0 |
| 20260901211543 | 63 | 183 | 2.0 | 6.0 | 0.00 | 0.30 | 0.30 | 91 | 1018.0 |
| 20260901211029 | 63 | 157 | 1.0 | 7.0 | 0.00 | 0.30 | 0.30 | 91 | 1018.1 |
| 20260901210531 | 63 | 165 | 2.0 | 7.0 | 0.00 | 0.30 | 0.30 | 90 | 1018.1 |
| 20260901210113 | 63 | 180 | 2.0 | 6.0 | 0.00 | 0.30 | 0.30 | 90 | 1018.0 |
| 20260901205530 | 64 | 0 | 2.0 | 8.0 | 0.00 | 0.30 | 0.30 | 90 | 1018.0 |
| 20260901205033 | 64 | 146 | 2.0 | 8.0 | 0.00 | 0.30 | 0.30 | 90 | 1017.9 |
| 20260901204548 | 64 | 171 | 3.0 | 8.0 | 0.00 | 0.30 | 0.30 | 90 | 1017.8 |
| 20260901204027 | 64 | 156 | 3.0 | 6.0 | 0.00 | 0.30 | 0.30 | 90 | 1017.6 |
| 20260901203527 | 64 | 165 | 2.0 | 5.0 | 0.00 | 0.30 | 0.30 | 91 | 1017.7 |
| 20260901203045 | 64 | 163 | 1.0 | 4.0 | 0.00 | 0.30 | 0.30 | 91 | 1017.6 |
| 20260901202530 | 64 | 178 | 1.0 | 3.0 | 0.00 | 0.30 | 0.30 | 90 | 1017.6 |
| 20260901202030 | 64 | 178 | 1.0 | 4.0 | 0.00 | 0.30 | 0.30 | 91 | 1017.8 |
| 20260901201543 | 64 | 211 | 0.0 | 4.0 | 0.00 | 0.30 | 0.30 | 90 | 1017.8 |
| 20260901201031 | 64 | 0 | 1.0 | 4.0 | 0.00 | 0.30 | 0.30 | 89 | 1017.7 |
| 20260901200529 | 64 | 184 | 0.0 | 3.0 | 0.00 | 0.30 | 0.30 | 90 | 1017.7 |
| 20260901200049 | 64 | 184 | 0.0 | 3.0 | 0.00 | 0.30 | 0.30 | 90 | 1017.5 |
| 20260901195530 | 64 | 180 | 0.0 | 3.0 | 0.00 | 0.30 | 0.30 | 90 | 1017.6 |
| 20260901195032 | 64 | 186 | 0.0 | 3.0 | 0.00 | 0.30 | 0.30 | 90 | 1017.6 |
| 20260901194547 | 64 | 0 | 0.0 | 4.0 | 0.00 | 0.30 | 0.30 | 91 | 1017.6 |
| 20260901194038 | 63 | 160 | 1.0 | 4.0 | 0.00 | 0.30 | 0.30 | 91 | 1017.7 |
| 20260901193531 | 63 | 173 | 1.0 | 3.0 | 0.00 | 0.30 | 0.30 | 91 | 1017.7 |
| 20260901193053 | 63 | 173 | 0.0 | 2.0 | 0.00 | 0.30 | 0.30 | 91 | 1017.7 |
| 20260901192527 | 63 | 173 | 0.0 | 2.0 | 0.00 | 0.30 | 0.30 | 91 | 1017.7 |
| 20260901192027 | 63 | 0 | 0.0 | 2.0 | 0.00 | 0.30 | 0.30 | 91 | 1017.8 |
| 20260901191548 | 63 | 0 | 0.0 | 2.0 | 0.00 | 0.30 | 0.30 | 92 | 1017.7 |
| 20260901191028 | 62 | 173 | 0.0 | 3.0 | 0.00 | 0.30 | 0.30 | 91 | 1017.8 |
| 20260901190533 | 63 | 173 | 0.0 | 5.0 | 0.00 | 0.30 | 0.30 | 90 | 1017.9 |
| 20260901190055 | 63 | 173 | 1.0 | 5.0 | 0.00 | 0.30 | 0.30 | 89 | 1017.9 |
| 20260901185528 | 63 | 172 | 1.0 | 4.0 | 0.00 | 0.30 | 0.30 | 90 | 1017.9 |
| 20260901185028 | 63 | 173 | 1.0 | 2.0 | 0.00 | 0.30 | 0.30 | 90 | 1017.9 |
| 20260901184542 | 63 | 181 | 0.0 | 3.0 | 0.00 | 0.30 | 0.30 | 91 | 1017.9 |
| 20260901184028 | 63 | 0 | 0.0 | 3.0 | 0.00 | 0.30 | 0.30 | 90 | 1017.9 |
| 20260901183528 | 63 | 189 | 0.0 | 3.0 | 0.00 | 0.30 | 0.30 | 89 | 1018.0 |
| 20260901183050 | 63 | 0 | 1.0 | 3.0 | 0.00 | 0.30 | 0.30 | 90 | 1017.8 |
| 20260901182528 | 63 | 176 | 0.0 | 3.0 | 0.00 | 0.30 | 0.30 | 90 | 1017.8 |
| 20260901182030 | 63 | 0 | 0.0 | 5.0 | 0.00 | 0.30 | 0.30 | 89 | 1017.9 |
| 20260901181543 | 63 | 0 | 1.0 | 5.0 | 0.00 | 0.30 | 0.30 | 88 | 1018.0 |
| 20260901181029 | 64 | 192 | 1.0 | 5.0 | 0.00 | 0.30 | 0.30 | 88 | 1017.9 |
| 20260901180531 | 64 | 176 | 1.0 | 3.0 | 0.00 | 0.30 | 0.30 | 86 | 1017.8 |
| 20260901180049 | 64 | 0 | 0.0 | 2.0 | 0.00 | 0.30 | 0.30 | 87 | 1017.8 |
| 20260901175531 | 64 | 351 | 0.0 | 1.0 | 0.00 | 0.30 | 0.30 | 86 | 1017.7 |
| 20260901175029 | 63 | 0 | 0.0 | 3.0 | 0.00 | 0.30 | 0.30 | 85 | 1017.8 |
| 20260901174554 | 63 | 0 | 0.0 | 3.0 | 0.00 | 0.30 | 0.30 | 85 | 1017.7 |
| 20260901174028 | 63 | 331 | 1.0 | 3.0 | 0.00 | 0.30 | 0.30 | 86 | 1017.7 |
| 20260901173531 | 63 | 0 | 0.0 | 3.0 | 0.00 | 0.30 | 0.30 | 90 | 1017.6 |
| 20260901173042 | 62 | 109 | 0.0 | 3.0 | 0.00 | 0.30 | 0.30 | 88 | 1017.6 |
| 20260901172530 | 62 | 0 | 0.0 | 3.0 | 0.00 | 0.30 | 0.30 | 89 | 1017.5 |
| 20260901172030 | 62 | 0 | 0.0 | 3.0 | 0.00 | 0.30 | 0.30 | 90 | 1017.6 |
| 20260901171545 | 62 | 0 | 0.0 | 2.0 | 0.00 | 0.30 | 0.30 | 89 | 1017.7 |
| 20260901171030 | 61 | 296 | 0.0 | 3.0 | 0.00 | 0.30 | 0.30 | 90 | 1017.7 |
| 20260901170528 | 62 | 225 | 1.0 | 3.0 | 0.00 | 0.30 | 0.30 | 90 | 1017.6 |
| 20260901170058 | 62 | 245 | 1.0 | 4.0 | 0.00 | 0.30 | 0.30 | 90 | 1017.6 |
| 20260901165533 | 62 | 0 | 0.0 | 4.0 | 0.00 | 0.30 | 0.30 | 91 | 1017.6 |
| 20260901165027 | 62 | 61 | 0.0 | 3.0 | 0.00 | 0.30 | 0.30 | 91 | 1017.5 |
| 20260901164552 | 61 | 11 | 0.0 | 2.0 | 0.00 | 0.30 | 0.30 | 92 | 1017.5 |
| 20260901164030 | 61 | 0 | 0.0 | 2.0 | 0.00 | 0.30 | 0.30 | 93 | 1017.3 |
| 20260901163530 | 61 | 0 | 0.0 | 2.0 | 0.00 | 0.30 | 0.30 | 93 | 1017.4 |
| 20260901163103 | 61 | 0 | 0.0 | 2.0 | 0.00 | 0.30 | 0.30 | 93 | 1017.6 |
| 20260901162530 | 60 | 0 | 0.0 | 2.0 | 0.00 | 0.30 | 0.30 | 94 | 1017.6 |
| 20260901162029 | 60 | 0 | 0.0 | 2.0 | 0.00 | 0.30 | 0.30 | 93 | 1017.7 |
| 20260901161550 | 60 | 0 | 0.0 | 2.0 | 0.00 | 0.30 | 0.30 | 93 | 1017.7 |
| 20260901161030 | 60 | 0 | 0.0 | 2.0 | 0.00 | 0.30 | 0.30 | 93 | 1017.9 |
| 20260901160529 | 60 | 0 | 0.0 | 1.0 | 0.00 | 0.30 | 0.30 | 93 | 1017.9 |
| 20260901160042 | 60 | 0 | 0.0 | 2.0 | 0.00 | 0.30 | 0.30 | 94 | 1017.8 |
| 20260901155528 | 60 | 0 | 0.0 | 2.0 | 0.00 | 0.30 | 0.30 | 93 | 1018.0 |
| 20260901155029 | 60 | 0 | 0.0 | 3.0 | 0.00 | 0.30 | 0.30 | 93 | 1018.1 |
| 20260901154553 | 60 | 0 | 0.0 | 3.0 | 0.00 | 0.30 | 0.30 | 93 | 1018.2 |
| 20260901154027 | 60 | 146 | 0.0 | 2.0 | 0.00 | 0.30 | 0.30 | 94 | 1018.2 |
| 20260901153530 | 60 | 0 | 0.0 | 1.0 | 0.00 | 0.30 | 0.30 | 95 | 1018.2 |
| 20260901153052 | 60 | 0 | 0.0 | 1.0 | 0.00 | 0.30 | 0.30 | 95 | 1018.2 |
| 20260901152531 | 59 | 0 | 0.0 | 1.0 | 0.00 | 0.30 | 0.30 | 94 | 1018.2 |
| 20260901152029 | 59 | 0 | 0.0 | 1.0 | 0.00 | 0.30 | 0.30 | 94 | 1018.3 |
| 20260901151542 | 59 | 0 | 0.0 | 0.0 | 0.00 | 0.30 | 0.30 | 94 | 1018.3 |
| 20260901151030 | 59 | 0 | 0.0 | 0.0 | 0.00 | 0.30 | 0.30 | 93 | 1018.2 |
| 20260901150528 | 59 | 0 | 0.0 | 0.0 | 0.00 | 0.30 | 0.30 | 94 | 1018.0 |
| 20260901150052 | 59 | 0 | 0.0 | 0.0 | 0.00 | 0.30 | 0.30 | 94 | 1018.0 |
| 20260901145529 | 59 | 0 | 0.0 | 3.0 | 0.00 | 0.30 | 0.30 | 94 | 1017.8 |
| 20260901145029 | 59 | 0 | 0.0 | 4.0 | 0.00 | 0.30 | 0.30 | 94 | 1017.8 |
| 20260901144543 | 59 | 0 | 1.0 | 4.0 | 0.00 | 0.30 | 0.30 | 94 | 1017.7 |
| 20260901144034 | 59 | 173 | 0.0 | 4.0 | 0.00 | 0.30 | 0.30 | 94 | 1017.6 |
| 20260901143529 | 59 | 175 | 0.0 | 2.0 | 0.00 | 0.30 | 0.30 | 94 | 1017.6 |
| 20260901143052 | 59 | 187 | 0.0 | 2.0 | 0.00 | 0.30 | 0.30 | 94 | 1017.7 |
| 20260901142530 | 59 | 187 | 0.0 | 3.0 | 0.00 | 0.30 | 0.30 | 93 | 1017.8 |
| 20260901142029 | 59 | 0 | 0.0 | 3.0 | 0.01 | 0.30 | 0.30 | 94 | 1017.8 |
| 20260901141546 | 59 | 186 | 0.0 | 2.0 | 0.01 | 0.30 | 0.30 | 93 | 1017.8 |
| 20260901141029 | 59 | 0 | 0.0 | 3.0 | 0.02 | 0.30 | 0.30 | 93 | 1017.6 |
| 20260901140528 | 59 | 214 | 0.0 | 3.0 | 0.02 | 0.30 | 0.30 | 95 | 1017.6 |
| 20260901140055 | 59 | 47 | 0.0 | 3.0 | 0.03 | 0.30 | 0.30 | 95 | 1017.6 |
| 20260901135528 | 59 | 163 | 0.0 | 2.0 | 0.04 | 0.30 | 0.30 | 95 | 1017.6 |
| 20260901135031 | 58 | 0 | 0.0 | 2.0 | 0.04 | 0.30 | 0.30 | 95 | 1017.7 |
| 20260901134559 | 58 | 20 | 0.0 | 2.0 | 0.05 | 0.30 | 0.30 | 95 | 1017.8 |
| 20260901134028 | 58 | 0 | 0.0 | 3.0 | 0.05 | 0.30 | 0.30 | 95 | 1017.8 |
| 20260901133527 | 58 | 23 | 1.0 | 3.0 | 0.06 | 0.30 | 0.30 | 95 | 1018.0 |
| 20260901133100 | 58 | 25 | 0.0 | 3.0 | 0.07 | 0.30 | 0.30 | 95 | 1017.9 |
| 20260901132527 | 58 | 0 | 0.0 | 3.0 | 0.09 | 0.30 | 0.30 | 95 | 1017.7 |
| 20260901132031 | 58 | 0 | 1.0 | 3.0 | 0.10 | 0.29 | 0.29 | 96 | 1017.8 |
| 20260901131547 | 57 | 0 | 0.0 | 3.0 | 0.11 | 0.28 | 0.28 | 95 | 1018.0 |
| 20260901131030 | 57 | 0 | 1.0 | 3.0 | 0.13 | 0.28 | 0.28 | 95 | 1018.2 |
| 20260901130530 | 57 | 19 | 0.0 | 2.0 | 0.14 | 0.28 | 0.28 | 95 | 1018.1 |
| 20260901130049 | 57 | 0 | 0.0 | 1.0 | 0.14 | 0.27 | 0.27 | 95 | 1018.0 |
| 20260901125527 | 57 | 0 | 0.0 | 1.0 | 0.13 | 0.26 | 0.26 | 95 | 1018.0 |
| 20260901125028 | 57 | 0 | 0.0 | 0.0 | 0.14 | 0.26 | 0.26 | 95 | 1018.2 |
| 20260901124546 | 57 | 0 | 0.0 | 1.0 | 0.14 | 0.25 | 0.25 | 95 | 1018.2 |
| 20260901124026 | 57 | 0 | 0.0 | 1.0 | 0.14 | 0.25 | 0.25 | 94 | 1018.1 |
| 20260901123530 | 57 | 0 | 0.0 | 1.0 | 0.14 | 0.24 | 0.24 | 94 | 1018.3 |
| 20260901123042 | 57 | 0 | 0.0 | 1.0 | 0.14 | 0.23 | 0.23 | 94 | 1018.4 |
| 20260901122529 | 57 | 0 | 0.0 | 1.0 | 0.13 | 0.21 | 0.21 | 94 | 1018.2 |
| 20260901122030 | 57 | 19 | 0.0 | 1.0 | 0.13 | 0.19 | 0.19 | 94 | 1018.4 |
| 20260901121553 | 58 | 0 | 0.0 | 1.0 | 0.12 | 0.17 | 0.17 | 94 | 1018.5 |
| 20260901121028 | 58 | 0 | 0.0 | 1.0 | 0.12 | 0.15 | 0.15 | 94 | 1018.6 |
| 20260901120532 | 58 | 0 | 0.0 | 1.0 | 0.12 | 0.14 | 0.14 | 94 | 1018.4 |
| 20260901120044 | 58 | 0 | 0.0 | 1.0 | 0.13 | 0.13 | 0.13 | 94 | 1018.5 |
| 20260901115530 | 58 | 0 | 0.0 | 1.0 | 0.12 | 0.12 | 0.12 | 93 | 1018.5 |
| 20260901115030 | 58 | 0 | 0.0 | 0.0 | 0.12 | 0.12 | 0.12 | 93 | 1018.6 |
| 20260901114552 | 58 | 0 | 0.0 | 0.0 | 0.11 | 0.11 | 0.11 | 93 | 1018.5 |
| 20260901114029 | 58 | 0 | 0.0 | 1.0 | 0.11 | 0.11 | 0.11 | 93 | 1018.5 |
| 20260901113530 | 58 | 0 | 0.0 | 1.0 | 0.10 | 0.10 | 0.10 | 92 | 1018.4 |
| 20260901113050 | 59 | 0 | 0.0 | 1.0 | 0.09 | 0.09 | 0.09 | 92 | 1018.4 |
| 20260901112531 | 59 | 0 | 0.0 | 1.0 | 0.08 | 0.08 | 0.08 | 92 | 1018.3 |
| 20260901112031 | 59 | 0 | 0.0 | 1.0 | 0.06 | 0.06 | 0.06 | 92 | 1018.3 |
| 20260901111548 | 59 | 0 | 0.0 | 1.0 | 0.05 | 0.05 | 0.05 | 92 | 1018.1 |
| 20260901111028 | 59 | 0 | 0.0 | 1.0 | 0.03 | 0.03 | 0.03 | 91 | 1018.1 |
| 20260901110530 | 59 | 0 | 0.0 | 0.0 | 0.02 | 0.02 | 0.02 | 90 | 1017.9 |
| 20260901110048 | 59 | 0 | 0.0 | 0.0 | 0.00 | 0.00 | 0.00 | 90 | 1017.8 |
| 20260901105530 | 59 | 0 | 0.0 | 1.0 | 0.00 | 0.00 | 0.00 | 89 | 1017.8 |
| 20260901105033 | 59 | 0 | 0.0 | 1.0 | 0.00 | 0.00 | 0.00 | 89 | 1017.6 |
| 20260901104550 | 59 | 0 | 0.0 | 1.0 | 0.00 | 0.00 | 0.00 | 88 | 1017.7 |
| 20260901104031 | 59 | 0 | 0.0 | 1.0 | 0.00 | 0.00 | 0.00 | 88 | 1017.6 |
| 20260901103530 | 60 | 0 | 0.0 | 1.0 | 0.00 | 0.00 | 0.00 | 88 | 1017.5 |
| 20260901103051 | 60 | 0 | 0.0 | 2.0 | 0.00 | 0.00 | 0.00 | 88 | 1017.4 |
| 20260901102530 | 60 | 0 | 0.0 | 2.0 | 0.00 | 0.00 | 0.00 | 88 | 1017.3 |
| 20260901102031 | 60 | 19 | 0.0 | 1.0 | 0.00 | 0.00 | 0.00 | 88 | 1017.4 |
| 20260901101549 | 60 | 0 | 0.0 | 1.0 | 0.00 | 0.00 | 0.00 | 88 | 1017.3 |
| 20260901101030 | 60 | 0 | 0.0 | 1.0 | 0.00 | 0.00 | 0.00 | 89 | 1017.2 |
| 20260901100533 | 60 | 0 | 0.0 | 1.0 | 0.00 | 0.00 | 0.00 | 88 | 1017.3 |
| 20260901100051 | 60 | 0 | 0.0 | 1.0 | 0.00 | 0.00 | 0.00 | 88 | 1017.3 |
| 20260901095530 | 60 | 0 | 0.0 | 3.0 | 0.00 | 0.00 | 0.00 | 88 | 1017.3 |
| 20260901095030 | 60 | 0 | 1.0 | 3.0 | 0.00 | 0.00 | 0.00 | 89 | 1017.4 |
| 20260901094549 | 60 | 35 | 0.0 | 2.0 | 0.00 | 0.00 | 0.00 | 89 | 1017.3 |
| 20260901094029 | 60 | 0 | 0.0 | 0.0 | 0.00 | 0.00 | 0.00 | 89 | 1017.0 |
| 20260901093531 | 60 | 0 | 0.0 | 0.0 | 0.00 | 0.00 | 0.00 | 90 | 1016.9 |
| 20260901093057 | 60 | 0 | 0.0 | 0.0 | 0.00 | 0.00 | 0.00 | 89 | 1017.1 |
| 20260901092530 | 60 | 0 | 0.0 | 1.0 | 0.00 | 0.00 | 0.00 | 90 | 1017.1 |
| 20260901092030 | 60 | 0 | 0.0 | 2.0 | 0.00 | 0.00 | 0.00 | 90 | 1017.0 |
| 20260901091556 | 60 | 0 | 0.0 | 2.0 | 0.00 | 0.00 | 0.00 | 89 | 1017.2 |
| 20260901091030 | 60 | 43 | 0.0 | 2.0 | 0.00 | 0.00 | 0.00 | 89 | 1017.1 |
| 20260901090529 | 60 | 0 | 0.0 | 1.0 | 0.00 | 0.00 | 0.00 | 90 | 1017.2 |
| 20260901090053 | 60 | 0 | 0.0 | 1.0 | 0.00 | 0.00 | 0.00 | 90 | 1017.2 |
| 20260901085530 | 60 | 0 | 0.0 | 1.0 | 0.00 | 0.00 | 0.00 | 90 | 1017.2 |
| 20260901085033 | 60 | 0 | 0.0 | 1.0 | 0.00 | 0.00 | 0.00 | 90 | 1017.1 |
| 20260901084551 | 60 | 0 | 0.0 | 1.0 | 0.00 | 0.00 | 0.00 | 91 | 1017.1 |
| 20260901084030 | 60 | 0 | 0.0 | 1.0 | 0.00 | 0.00 | 0.00 | 91 | 1017.2 |
| 20260901083531 | 60 | 43 | 0.0 | 1.0 | 0.00 | 0.00 | 0.00 | 91 | 1017.3 |
| 20260901083048 | 60 | 0 | 0.0 | 1.0 | 0.00 | 0.00 | 0.00 | 92 | 1017.4 |
| 20260901082530 | 60 | 0 | 0.0 | 1.0 | 0.00 | 0.00 | 0.00 | 92 | 1017.3 |
| 20260901082034 | 59 | 0 | 0.0 | 1.0 | 0.00 | 0.00 | 0.00 | 92 | 1017.5 |
| 20260901081544 | 59 | 0 | 0.0 | 0.0 | 0.00 | 0.00 | 0.00 | 92 | 1017.5 |
| 20260901081030 | 59 | 0 | 0.0 | 0.0 | 0.00 | 0.00 | 0.00 | 92 | 1017.3 |
| 20260901080530 | 59 | 0 | 0.0 | 0.0 | 0.00 | 0.00 | 0.00 | 92 | 1017.2 |
| 20260901080057 | 60 | 0 | 0.0 | 0.0 | 0.00 | 0.00 | 0.00 | 92 | 1017.4 |
| 20260901075530 | 60 | 0 | 0.0 | 3.0 | 0.00 | 0.00 | 0.00 | 92 | 1017.5 |
| 20260901075031 | 60 | 0 | 0.0 | 3.0 | 0.00 | 0.00 | 0.00 | 93 | 1017.4 |
| 20260901074539 | 60 | 348 | 0.0 | 2.0 | 0.00 | 0.00 | 0.00 | 94 | 1017.3 |
| 20260901074030 | 60 | 0 | 0.0 | 1.0 | 0.00 | 0.00 | 0.00 | 93 | 1017.3 |
| 20260901073530 | 59 | 0 | 0.0 | 0.0 | 0.00 | 0.00 | 0.00 | 93 | 1017.4 |
| 20260901073049 | 59 | 0 | 0.0 | 0.0 | 0.00 | 0.00 | 0.00 | 93 | 1017.5 |
| 20260901072531 | 59 | 0 | 0.0 | 1.0 | 0.00 | 0.00 | 0.00 | 93 | 1017.4 |
| 20260901072032 | 59 | 0 | 0.0 | 1.0 | 0.00 | 0.00 | 0.00 | 93 | 1017.4 |
| 20260901071544 | 59 | 319 | 0.0 | 1.0 | 0.00 | 0.00 | 0.00 | 93 | 1017.5 |
| 20260901071029 | 59 | 0 | 0.0 | 1.0 | 0.00 | 0.00 | 0.00 | 93 | 1017.5 |
| 20260901070529 | 59 | 0 | 0.0 | 2.0 | 0.00 | 0.00 | 0.00 | 93 | 1017.5 |
| 20260901070054 | 59 | 0 | 0.0 | 2.0 | 0.00 | 0.00 | 0.00 | 93 | 1017.6 |
| 20260901065530 | 59 | 319 | 1.0 | 2.0 | 0.00 | 0.00 | 0.00 | 94 | 1017.7 |
| 20260901065029 | 59 | 0 | 0.0 | 1.0 | 0.00 | 0.00 | 0.00 | 93 | 1017.8 |
| 20260901064606 | 59 | 0 | 0.0 | 1.0 | 0.00 | 0.00 | 0.00 | 93 | 1017.7 |
| 20260901064029 | 60 | 0 | 0.0 | 1.0 | 0.00 | 0.00 | 0.00 | 93 | 1017.6 |
| 20260901063530 | 59 | 0 | 0.0 | 1.0 | 0.00 | 0.00 | 0.00 | 94 | 1017.7 |
| 20260901063109 | 59 | 0 | 0.0 | 1.0 | 0.00 | 0.00 | 0.00 | 94 | 1017.7 |
| 20260901062532 | 59 | 319 | 0.0 | 2.0 | 0.00 | 0.00 | 0.00 | 94 | 1017.8 |
| 20260901062237 | 59 | 0 | 0.0 | 2.0 | 0.00 | 0.00 | 0.00 | 94 | 1017.8 |
| 20260901061543 | 59 | 319 | 0.0 | 2.0 | 0.00 | 0.00 | 0.00 | 94 | 1017.8 |
| 20260901061030 | 59 | 0 | 0.0 | 0.0 | 0.00 | 0.00 | 0.00 | 93 | 1017.7 |
| 20260901060533 | 59 | 0 | 0.0 | 0.0 | 0.00 | 0.00 | 0.00 | 93 | 1017.9 |
| 20260901060047 | 59 | 0 | 0.0 | 0.0 | 0.00 | 0.00 | 0.00 | 93 | 1018.0 |
| 20260901055724 | 59 | 0 | 0.0 | 0.0 | 0.00 | 0.00 | 0.00 | 92 | 1017.9 |
| 20260901054030 | 59 | 0 | 0.0 | 0.0 | 0.00 | 0.00 | 0.00 | 92 | 1017.8 |
| 20260901053530 | 59 | 0 | 0.0 | 0.0 | 0.00 | 0.00 | 0.00 | 91 | 1017.9 |
| 20260901053039 | 59 | 0 | 0.0 | 2.0 | 0.00 | 0.00 | 0.00 | 92 | 1018.1 |
| 20260901052527 | 59 | 0 | 0.0 | 2.0 | 0.00 | 0.00 | 0.00 | 92 | 1018.1 |
| 20260901052030 | 59 | 0 | 0.0 | 2.0 | 0.00 | 0.00 | 0.00 | 92 | 1018.2 |
| 20260901051554 | 59 | 0 | 0.0 | 1.0 | 0.00 | 0.00 | 0.00 | 92 | 1018.2 |
| 20260901051030 | 59 | 0 | 0.0 | 0.0 | 0.00 | 0.00 | 0.00 | 92 | 1018.1 |
| 20260901050530 | 59 | 0 | 0.0 | 1.0 | 0.00 | 0.00 | 0.00 | 92 | 1018.1 |
| 20260901050048 | 59 | 0 | 0.0 | 1.0 | 0.00 | 0.00 | 0.00 | 91 | 1018.1 |
| 20260901045530 | 59 | 0 | 0.0 | 1.0 | 0.00 | 0.00 | 0.00 | 91 | 1018.0 |
| 20260901045030 | 59 | 0 | 0.0 | 0.0 | 0.00 | 0.00 | 0.00 | 90 | 1018.0 |
| 20260901044544 | 60 | 0 | 0.0 | 1.0 | 0.00 | 0.00 | 0.00 | 90 | 1018.0 |
| 20260901044034 | 60 | 0 | 0.0 | 1.0 | 0.00 | 0.00 | 0.00 | 90 | 1018.2 |
| 20260901043530 | 60 | 0 | 0.0 | 0.0 | 0.00 | 0.00 | 0.00 | 90 | 1018.1 |
| 20260901043053 | 60 | 0 | 0.0 | 0.0 | 0.00 | 0.00 | 0.00 | 90 | 1017.8 |
| 20260901042527 | 60 | 0 | 0.0 | 1.0 | 0.00 | 0.00 | 0.00 | 89 | 1017.7 |
| 20260901042029 | 60 | 0 | 0.0 | 1.0 | 0.00 | 0.00 | 0.00 | 90 | 1017.8 |
| 20260901041538 | 60 | 0 | 0.0 | 1.0 | 0.00 | 0.00 | 0.00 | 90 | 1017.8 |
| 20260901041027 | 60 | 0 | 0.0 | 1.0 | 0.00 | 0.00 | 0.00 | 90 | 1017.8 |
| 20260901040530 | 60 | 0 | 0.0 | 1.0 | 0.00 | 0.00 | 0.00 | 89 | 1018.1 |
| 20260901040050 | 60 | 0 | 0.0 | 0.0 | 0.00 | 0.00 | 0.00 | 90 | 1017.8 |
| 20260901035530 | 59 | 0 | 0.0 | 0.0 | 0.00 | 0.00 | 0.00 | 90 | 1017.8 |
| 20260901035027 | 59 | 0 | 0.0 | 0.0 | 0.00 | 0.00 | 0.00 | 89 | 1018.0 |
| 20260901034549 | 59 | 0 | 0.0 | 0.0 | 0.00 | 0.00 | 0.00 | 89 | 1017.9 |
| 20260901034029 | 59 | 0 | 0.0 | 0.0 | 0.00 | 0.00 | 0.00 | 89 | 1018.0 |
| 20260901033529 | 59 | 0 | 0.0 | 0.0 | 0.00 | 0.00 | 0.00 | 89 | 1017.9 |
| 20260901033043 | 59 | 0 | 0.0 | 0.0 | 0.00 | 0.00 | 0.00 | 88 | 1018.0 |
| 20260901032528 | 59 | 0 | 0.0 | 0.0 | 0.00 | 0.00 | 0.00 | 88 | 1018.0 |
| 20260901032028 | 59 | 0 | 0.0 | 0.0 | 0.00 | 0.00 | 0.00 | 88 | 1018.0 |
| 20260901031547 | 59 | 0 | 0.0 | 2.0 | 0.00 | 0.00 | 0.00 | 89 | 1018.0 |
| 20260901031031 | 59 | 0 | 0.0 | 2.0 | 0.00 | 0.00 | 0.00 | 88 | 1017.9 |
| 20260901030527 | 59 | 319 | 1.0 | 2.0 | 0.00 | 0.00 | 0.00 | 88 | 1017.8 |
| 20260901030047 | 59 | 0 | 0.0 | 1.0 | 0.00 | 0.00 | 0.00 | 87 | 1017.9 |
| 20260901025529 | 59 | 0 | 0.0 | 1.0 | 0.00 | 0.00 | 0.00 | 87 | 1018.0 |
| 20260901025032 | 59 | 0 | 0.0 | 1.0 | 0.00 | 0.00 | 0.00 | 87 | 1018.0 |
| 20260901024540 | 60 | 0 | 0.0 | 0.0 | 0.00 | 0.00 | 0.00 | 87 | 1018.1 |
| 20260901024031 | 60 | 0 | 0.0 | 0.0 | 0.00 | 0.00 | 0.00 | 86 | 1018.1 |
| 20260901023530 | 60 | 0 | 0.0 | 0.0 | 0.00 | 0.00 | 0.00 | 85 | 1018.1 |
| 20260901023041 | 60 | 0 | 0.0 | 0.0 | 0.00 | 0.00 | 0.00 | 84 | 1018.1 |
| 20260901022530 | 61 | 0 | 0.0 | 1.0 | 0.00 | 0.00 | 0.00 | 83 | 1018.1 |
| 20260901022030 | 61 | 0 | 0.0 | 1.0 | 0.00 | 0.00 | 0.00 | 83 | 1018.1 |
| 20260901021549 | 61 | 0 | 0.0 | 1.0 | 0.00 | 0.00 | 0.00 | 82 | 1018.1 |
| 20260901021031 | 62 | 0 | 0.0 | 1.0 | 0.00 | 0.00 | 0.00 | 81 | 1018.0 |
| 20260901020528 | 62 | 0 | 0.0 | 1.0 | 0.00 | 0.00 | 0.00 | 80 | 1018.1 |
| 20260901020043 | 63 | 0 | 0.0 | 1.0 | 0.00 | 0.00 | 0.00 | 79 | 1018.0 |
| 20260901015532 | 63 | 0 | 0.0 | 1.0 | 0.00 | 0.00 | 0.00 | 79 | 1018.0 |
| 20260901015031 | 63 | 0 | 0.0 | 1.0 | 0.00 | 0.00 | 0.00 | 80 | 1017.9 |
| 20260901014549 | 63 | 319 | 0.0 | 1.0 | 0.00 | 0.00 | 0.00 | 79 | 1018.1 |
| 20260901014030 | 64 | 0 | 0.0 | 1.0 | 0.00 | 0.00 | 0.00 | 78 | 1018.1 |
| 20260901013530 | 64 | 0 | 0.0 | 2.0 | 0.00 | 0.00 | 0.00 | 78 | 1018.2 |
| 20260901013058 | 64 | 0 | 0.0 | 2.0 | 0.00 | 0.00 | 0.00 | 79 | 1018.1 |
| 20260901012529 | 64 | 0 | 0.0 | 2.0 | 0.00 | 0.00 | 0.00 | 79 | 1018.0 |
| 20260901012033 | 64 | 0 | 0.0 | 1.0 | 0.00 | 0.00 | 0.00 | 78 | 1018.0 |
| 20260901011551 | 64 | 0 | 0.0 | 1.0 | 0.00 | 0.00 | 0.00 | 78 | 1018.0 |
| 20260901011030 | 64 | 0 | 0.0 | 1.0 | 0.00 | 0.00 | 0.00 | 78 | 1018.0 |
| 20260901010530 | 64 | 0 | 0.0 | 2.0 | 0.00 | 0.00 | 0.00 | 78 | 1018.0 |
| 20260901010054 | 64 | 0 | 0.0 | 2.0 | 0.00 | 0.00 | 0.00 | 77 | 1018.0 |
| 20260901005527 | 64 | 319 | 0.0 | 2.0 | 0.00 | 0.00 | 0.00 | 77 | 1018.1 |
| 20260901005030 | 64 | 0 | 0.0 | 1.0 | 0.00 | 0.00 | 0.00 | 77 | 1018.0 |
| 20260901004555 | 64 | 0 | 0.0 | 1.0 | 0.00 | 0.00 | 0.00 | 75 | 1018.2 |
| 20260901004029 | 64 | 0 | 0.0 | 1.0 | 0.00 | 0.00 | 0.00 | 74 | 1018.3 |
| 20260901003529 | 64 | 0 | 0.0 | 1.0 | 0.00 | 0.00 | 0.00 | 74 | 1018.2 |
| 20260901003054 | 64 | 0 | 0.0 | 1.0 | 0.00 | 0.00 | 0.00 | 73 | 1018.1 |
| 20260901002529 | 64 | 0 | 0.0 | 2.0 | 0.00 | 0.00 | 0.00 | 73 | 1018.1 |
| 20260901002031 | 64 | 0 | 0.0 | 2.0 | 0.00 | 0.00 | 0.00 | 73 | 1017.9 |
| 20260901001549 | 64 | 0 | 0.0 | 0.0 | 0.00 | 0.00 | 0.00 | 72 | 1018.0 |
| 20260901001028 | 65 | 0 | 0.0 | 0.0 | 0.00 | 0.00 | 0.00 | 71 | 1018.0 |
| 20260901000531 | 65 | 0 | 0.0 | 1.0 | 0.00 | 0.00 | 0.00 | 70 | 1017.9 |
| 20260901000048 | 66 | 0 | 0.0 | 1.0 | 0.00 | 0.00 | 0.00 | 68 | 1017.8 |
| 20260831235529 | 66 | 329 | 0.0 | 1.0 | 0.00 | 0.00 | 0.00 | 68 | 1018.0 |
| 20260831235034 | 67 | 0 | 0.0 | 1.0 | 0.00 | 0.00 | 0.00 | 67 | 1017.9 |
| 20260831234540 | 67 | 0 | 0.0 | 1.0 | 0.00 | 0.00 | 0.00 | 66 | 1018.0 |
| 20260831234028 | 68 | 0 | 0.0 | 1.0 | 0.00 | 0.00 | 0.00 | 65 | 1017.9 |
| 20260831233528 | 68 | 0 | 0.0 | 0.0 | 0.00 | 0.00 | 0.00 | 64 | 1017.9 |
| 20260831233048 | 69 | 0 | 0.0 | 1.0 | 0.00 | 0.00 | 0.00 | 63 | 1017.9 |
| 20260831232530 | 70 | 0 | 0.0 | 1.0 | 0.00 | 0.00 | 0.00 | 62 | 1017.9 |
| 20260831232029 | 70 | 0 | 0.0 | 1.0 | 0.00 | 0.00 | 0.00 | 60 | 1018.1 |
| 20260831231548 | 71 | 0 | 0.0 | 2.0 | 0.00 | 0.00 | 0.00 | 58 | 1018.0 |
| 20260831231030 | 71 | 0 | 0.0 | 3.0 | 0.00 | 0.00 | 0.00 | 56 | 1018.1 |
| 20260831230530 | 72 | 329 | 0.0 | 3.0 | 0.00 | 0.00 | 0.00 | 56 | 1018.1 |
| 20260831230051 | 72 | 329 | 0.0 | 3.0 | 0.00 | 0.00 | 0.00 | 56 | 1018.3 |
| 20260831225529 | 72 | 334 | 1.0 | 3.0 | 0.00 | 0.00 | 0.00 | 55 | 1018.4 |